This is the latest recevied weather packets stored in our database for station/object K4MUW-4. If no packets are shown the sender has not sent any weather packets the latest 1 day(s).
| Time | Temp. | Humidity | Pressure | Rain* | Wind** | Luminosity | Snow |
|---|---|---|---|---|---|---|---|
| 1778083547 | 23.33° C | 66% | 1011 hPa | 0 mm | 1.79 m/s, 220° | - | - |
| 1778082946 | 23.33° C | 68% | 1011 hPa | 0 mm | 2.68 m/s, 210° | - | - |
| 1778082646 | 22.78° C | 68% | 1011 hPa | 0 mm | 2.24 m/s, 260° | - | - |
| 1778082045 | 22.22° C | 71% | 1011 hPa | 0 mm | 1.79 m/s, 209° | - | - |
| 1778081144 | 21.11° C | 73% | 1011 hPa | 0 mm | 3.13 m/s, 227° | - | - |
| 1778079938 | 20° C | 73% | 1012 hPa | 0 mm | 1.34 m/s, 182° | - | - |
| 1778079037 | 20° C | 72% | 1013 hPa | 0 mm | 0 m/s | - | - |
| 1778078436 | 20° C | 72% | 1012 hPa | 0 mm | 1.34 m/s, 221° | - | - |
| 1778077535 | 20° C | 71% | 1012 hPa | 0 mm | 1.79 m/s, 173° | - | - |
| 1778076333 | 20° C | 70% | 1012 hPa | 0 mm | 1.79 m/s, 169° | - | - |
| 1778076033 | 20° C | 70% | 1012 hPa | 0 mm | 0 m/s | - | - |
| 1778075432 | 20° C | 70% | 1012 hPa | 0 mm | 1.34 m/s, 224° | - | - |
| 1778074531 | 20° C | 69% | 1012 hPa | 0 mm | 1.34 m/s, 198° | - | - |
| 1778073630 | 20° C | 69% | 1012 hPa | 0 mm | 1.34 m/s, 237° | - | - |
| 1778072128 | 20° C | 69% | 1011 hPa | 0 mm | 1.79 m/s, 191° | - | - |
| 1778071227 | 20° C | 68% | 1011 hPa | 0 mm | 1.34 m/s, 184° | - | - |
| 1778070626 | 20° C | 68% | 1011 hPa | 0 mm | 1.79 m/s, 180° | - | - |
| 1778068218 | 20° C | 66% | 1011 hPa | 0 mm | 0 m/s | - | - |
| 1778063111 | 20° C | 64% | 1010 hPa | 0 mm | 0 m/s | - | - |
| 1778062506 | 20° C | 64% | 1010 hPa | 0 mm | 1.79 m/s, 180° | - | - |
| 1778061905 | 20° C | 63% | 1010 hPa | 0 mm | 1.34 m/s, 165° | - | - |
| 1778058901 | 20° C | 63% | 1009 hPa | 0 mm | 1.79 m/s, 192° | - | - |
| 1778058300 | 20° C | 63% | 1009 hPa | 0 mm | 1.79 m/s, 237° | - | - |
| 1778057399 | 20° C | 63% | 1009 hPa | 0 mm | 1.34 m/s, 181° | - | - |
| 1778056798 | 20° C | 63% | 1009 hPa | 0 mm | 1.34 m/s, 180° | - | - |
* Rain latest hour (hover to see other rain measurements)
** Current wind speed in m/s (hover to see current wind gust speed)